Waarnemingen

Advertentie
Mijn weer
Lichtenhain-Mittelndorf, Duitsland (10591): temperatuur & dauwpunt: 18.02.2017 09:00:00 - 24.02.2017 09:00:00 (CET)Lichtenhain-Mittelndorf, Duitsland (10591): temperatuur 5cm & temperatuur -5cm: 18.02.2017 09:00:00 - 24.02.2017 09:00:00 (CET)Lichtenhain-Mittelndorf, Duitsland (10591): temperatuur -20cm & temperatuur -100cm: 18.02.2017 09:00:00 - 24.02.2017 09:00:00 (CET)Lichtenhain-Mittelndorf, Duitsland (10591): windsnelheid & windstoten: 18.02.2017 09:00:00 - 24.02.2017 09:00:00 (CET)Lichtenhain-Mittelndorf, Duitsland (10591): windrichting: 18.02.2017 09:00:00 - 24.02.2017 09:00:00 (CET)Lichtenhain-Mittelndorf, Duitsland (10591): luchtdruk: 18.02.2017 09:00:00 - 24.02.2017 09:00:00 (CET)Lichtenhain-Mittelndorf, Duitsland (10591): zicht: 18.02.2017 09:00:00 - 24.02.2017 09:00:00 (CET)Lichtenhain-Mittelndorf, Duitsland (10591): Zonneschijnduur: 18.02.2017 09:00:00 - 24.02.2017 09:00:00 (CET)Lichtenhain-Mittelndorf, Duitsland (10591): neerslag: 18.02.2017 09:00:00 - 24.02.2017 09:00:00 (CET)
Datum & Tijd tt [°C] td [°C] tt 5cm [°C] tt -5cm [°C] tt -20cm [°C] tt -100cm [°C] ff [km/u] ff [kn] fx [km/u] fx [kn] dd ppp [hPa] vv [km] sd [min] rr [mm]
24.02.2017 09:00:00 2,6 -1,3 2,1 2,4 3,9 3,8 36 19 70 38 W 1002,0 70 0 0,0
24.02.2017 08:00:00 2,4 0,0 1,8 2,4 4,0 3,8 36 19 66 36 W 999,7 36 0 0,8
24.02.2017 07:00:00 2,4 0,8 1,8 2,8 4,2 3,7 41 22 82 44 W 998,0 15 0 0,2
24.02.2017 06:00:00 6,0 -1,3 4,8 3,2 4,3 3,7 33 18 71 38 W 994,8 70 0 0,0
24.02.2017 05:00:00 6,7 -2,0 5,6 3,3 4,4 3,7 30 16 62 33 WZW 993,5 70 0 0,0
24.02.2017 04:00:00 7,2 -2,6 5,8 3,3 4,6 3,7 31 17 69 37 WZW 992,9 70 0 0,0
24.02.2017 03:00:00 7,2 -2,3 5,8 3,4 4,8 3,7 34 18 67 36 ZW 992,9 70 0 0,0
24.02.2017 02:00:00 7,5 -1,9 6,1 3,6 5,1 3,7 48 26 70 38 WZW 992,7 70 0 0,0
24.02.2017 01:00:00 7,4 -0,9 5,2 4,0 5,3 3,6 34 18 55 30 ZW 992,5 70 0 0,0
24.02.2017 00:00:00 8,2 0,2 6,0 4,7 5,4 3,6 29 15 54 29 WZW 992,2 70 0 0,0
23.02.2017 23:00:00 7,2 3,3 5,8 5,5 5,5 3,6 16 8 44 24 WZW 992,7 70 0 0,0
23.02.2017 22:00:00 8,8 3,8 6,7 6,1 5,5 3,6 32 17 69 38 WZW 992,6 70 0 0,3
23.02.2017 21:00:00 10,2 3,8 8,7 6,3 5,5 3,6 21 11 60 32 ZW 992,1 70 0 0,0
23.02.2017 20:00:00 11,2 2,7 9,5 6,2 5,5 3,6 24 13 45 24 WZW 992,3 70 0 0,0
23.02.2017 19:00:00 10,9 2,5 9,1 6,1 5,6 3,6 18 10 36 19 ZW 992,3 70 0 0,0
23.02.2017 18:00:00 9,8 3,4 8,3 6,2 5,6 3,5 20 11 29 16 ZZW 993,2 55 0 0,0
23.02.2017 17:00:00 9,3 3,9 8,1 6,7 5,5 3,5 14 8 32 18 ZZW 994,1 48 0 0,0
23.02.2017 16:00:00 8,4 4,4 7,8 7,1 5,4 3,5 14 7 30 16 Z 995,6 25 0 0,0
23.02.2017 15:00:00 7,9 5,0 7,8 7,0 5,3 3,5 20 11 32 17 Z 997,6 13 0 0,0
23.02.2017 14:00:00 8,1 6,1 7,8 7,1 5,1 3,5 20 11 31 17 Z 998,9 10 0 0,0
23.02.2017 13:00:00 8,1 6,4 7,7 7,0 4,9 3,5 15 8 26 14 Z 1000,3 10 0 0,1
23.02.2017 12:00:00 7,3 6,5 7,1 6,4 4,7 3,4 11 6 15 8 ZZO 1001,3 13 0 0,6
23.02.2017 11:00:00 6,8 6,1 6,7 6,1 4,6 3,4 10 5 17 9 ZZO 1001,9 39 0 0,0
23.02.2017 10:00:00 6,1 5,9 6,2 5,6 4,5 3,4 6 4 14 8 ZO 1002,4 65 0 0,3
23.02.2017 09:00:00 5,8 5,7 5,9 5,3 4,5 3,4 9 5 19 10 Z 1003,1 0,5 0 1,1
23.02.2017 08:00:00 5,7 5,4 5,5 5,0 4,5 3,4 10 5 27 15 W 1003,7 3,1 0 0,9
23.02.2017 07:00:00 5,5 5,2 5,2 4,8 4,4 3,4 16 9 32 17 W 1003,5 4,6 0 1,1
23.02.2017 06:00:00 5,4 5,1 5,1 4,8 4,4 3,3 18 10 35 19 W 1003,7 6 0 1,3
23.02.2017 05:00:00 5,5 4,9 5,1 4,7 4,4 3,3 18 10 34 18 W 1003,7 6 0 1,1
23.02.2017 04:00:00 5,5 5,2 5,2 4,6 4,5 3,3 15 8 27 14 W 1003,5 3,7 0 1,4
23.02.2017 03:00:00 5,1 4,6 4,7 4,4 4,6 3,3 13 7 28 15 W 1003,7 5 0 1,0
23.02.2017 02:00:00 4,7 4,0 4,4 4,3 4,7 3,3 15 8 26 14 WZW 1004,1 12 0 1,4
23.02.2017 01:00:00 4,3 3,6 4,0 4,2 4,9 3,3 14 8 25 13 W 1004,5 6 0 1,8
23.02.2017 00:00:00 3,6 2,9 3,5 4,2 5,1 3,3 14 7 35 19 W 1005,1 5 0 1,3
22.02.2017 23:00:00 3,4 2,2 3,3 4,7 5,2 3,2 23 13 51 28 W 1005,5 11 0 1,9
22.02.2017 22:00:00 4,8 3,4 4,5 5,5 5,3 3,2 29 16 71 38 NW 1004,6 10 0 2,5
22.02.2017 21:00:00 9,7 5,1 8,5 6,6 5,3 3,2 40 21 64 34 WZW 1000,9 70 0 0,0
22.02.2017 20:00:00 9,3 5,3 7,4 6,7 5,2 3,2 34 18 56 30 WZW 1001,6 36 0 0,0
22.02.2017 19:00:00 9,6 5,2 8,6 6,8 5,2 3,2 30 16 55 30 WZW 1001,5 70 0 0,0
22.02.2017 18:00:00 9,9 5,3 9,0 7,0 5,1 3,2 32 17 57 31 WZW 1001,9 70 0 0,0
22.02.2017 17:00:00 10,1 5,5 9,1 7,1 4,9 3,2 32 17 61 33 WZW 1002,4 70 0 0,0
22.02.2017 16:00:00 10,1 5,7 9,4 7,2 4,8 3,2 29 16 56 30 W 1002,8 70 0 0,0
22.02.2017 15:00:00 10,3 5,5 9,4 7,3 4,6 3,1 31 17 68 37 W 1003,1 70 0 0,0
22.02.2017 14:00:00 10,2 5,4 9,4 7,3 4,3 3,1 35 19 62 34 W 1003,3 70 0 0,0
22.02.2017 13:00:00 10,6 5,6 9,9 7,3 3,9 3,1 29 16 61 33 W 1003,3 70 0 0,0
22.02.2017 12:00:00 10,7 5,7 9,6 7,1 3,6 3,1 34 19 63 34 WZW 1003,7 70 0 0,0
22.02.2017 11:00:00 10,9 5,7 10,0 6,7 3,2 3,1 37 20 57 31 WZW 1004,2 70 0 0,0
22.02.2017 10:00:00 10,1 6,3 8,7 5,5 2,9 3,1 23 12 44 24 WZW 1004,9 70 0 0,0
22.02.2017 09:00:00 7,0 5,4 6,4 4,1 2,8 3,1 10 5 25 14 ZZO 1005,7 25 0 0,0
22.02.2017 08:00:00 5,5 4,8 5,1 3,6 2,7 3,0 16 9 25 14 ZZO 1006,4 10 0 0,0
22.02.2017 07:00:00 4,8 4,3 4,4 3,2 2,6 3,0 17 9 25 14 ZZO 1007,0 6 0 1,7
22.02.2017 06:00:00 5,3 2,7 4,7 2,8 2,5 3,0 17 9 27 15 ZZO 1007,8 12 0 0,0
22.02.2017 05:00:00 4,4 1,9 4,0 2,4 2,5 3,0 16 9 23 13 ZZO 1009,1 17 0 0,0
22.02.2017 04:00:00 4,5 1,5 3,8 2,0 2,6 3,0 14 8 18 10 ZZO 1010,3 23 0 0,0
22.02.2017 03:00:00 4,4 1,3 2,9 1,8 2,7 3,0 11 6 14 7 Z 1011,8 29 0 0,0
22.02.2017 02:00:00 4,6 1,5 3,4 2,0 2,8 3,0 6 3 10 5 Z 1012,8 42 0 0,0
22.02.2017 01:00:00 4,2 1,4 3,3 1,8 3,0 3,0 8 4 11 6 Z 1013,5 43 0 0,0
22.02.2017 00:00:00 3,6 1,1 2,0 1,6 3,2 2,9 7 4 12 6 ZZW 1014,0 49 0 0,0
21.02.2017 23:00:00 3,2 1,5 1,2 1,5 3,5 2,9 9 5 18 10 ZW 1014,3 35 0 0,0
21.02.2017 22:00:00 4,5 1,4 1,5 2,1 3,8 2,9 11 6 20 11 W 1014,2 50 0 0,0
21.02.2017 21:00:00 4,9 1,8 2,2 2,8 4,0 2,9 12 7 22 12 W 1014,0 53 0 0,0
21.02.2017 20:00:00 5,0 2,4 2,9 3,4 4,2 2,9 16 8 26 14 WNW 1013,7 44 0 0,0
21.02.2017 19:00:00 5,5 2,8 3,9 4,1 4,4 2,9 17 9 40 22 NW 1013,3 46 0 0,0
21.02.2017 18:00:00 5,6 3,4 4,6 4,8 4,5 2,9 26 14 52 28 NW 1012,3 38 0 0,0
21.02.2017 17:00:00 5,6 3,7 5,1 5,3 4,5 2,9 27 14 54 29 NW 1011,4 40 0 0,5
21.02.2017 16:00:00 6,2 3,9 5,6 6,0 4,5 2,9 28 15 58 32 NW 1011,0 52 4 0,3
21.02.2017 15:00:00 7,2 3,3 6,3 6,2 4,4 2,9 22 12 56 30 NW 1010,3 67 2 0,0
21.02.2017 14:00:00 7,8 3,9 8,4 6,4 4,3 2,9 26 14 58 32 NW 1009,8 61 4 0,1
21.02.2017 13:00:00 7,6 3,5 6,3 6,8 4,0 2,9 31 17 59 32 WNW 1009,7 30 0 0,2
21.02.2017 12:00:00 8,3 4,0 7,5 7,6 3,7 2,9 42 23 74 40 WNW 1009,1 37 0 0,0
21.02.2017 11:00:00 8,7 5,7 8,7 7,3 3,4 2,9 29 16 46 25 WNW 1008,7 54 4 0,0
21.02.2017 10:00:00 7,9 6,8 7,4 5,9 3,2 2,9 15 8 28 15 W 1008,7 43 0 0,1
21.02.2017 09:00:00 7,3 6,8 6,8 5,5 3,1 2,9 15 8 25 14 W 1008,8 7 0 0,5
21.02.2017 08:00:00 7,4 6,7 6,5 5,2 2,9 2,9 13 7 24 13 W 1008,9 70 0 0,0
21.02.2017 07:00:00 7,4 6,9 6,6 5,3 2,7 2,9 18 10 41 22 W 1008,5 38 0 0,3
21.02.2017 06:00:00 7,4 7,0 6,6 5,2 2,5 2,9 20 11 35 19 W 1008,4 7 0 0,5
21.02.2017 05:00:00 7,4 6,9 6,5 5,0 2,3 2,9 19 10 34 18 W 1008,8 7 0 0,7
21.02.2017 04:00:00 7,3 6,6 6,3 4,7 2,1 3,0 19 11 42 23 W 1008,9 3,0 0 0,2
21.02.2017 03:00:00 7,3 6,2 5,9 4,5 1,9 3,0 22 12 39 21 W 1009,0 54 0 0,5
21.02.2017 02:00:00 7,1 6,1 5,7 4,3 1,6 3,0 22 12 35 19 W 1009,6 7 0 1,2
21.02.2017 01:00:00 7,5 5,6 5,7 4,0 1,4 3,0 21 11 43 23 W 1010,0 32 0 0,0
21.02.2017 00:00:00 7,2 5,6 5,4 3,7 1,2 3,0 22 12 41 22 WZW 1010,3 42 0 0,0
20.02.2017 23:00:00 6,9 5,9 5,1 3,3 1,0 3,0 24 13 35 19 W 1010,7 7 0 0,1
20.02.2017 22:00:00 6,7 5,4 5,0 2,8 0,9 3,0 18 10 30 16 WZW 1011,1 36 0 0,0
20.02.2017 21:00:00 6,1 5,2 4,3 2,4 0,8 3,0 12 7 27 14 ZW 1011,7 12 0 1,7
20.02.2017 20:00:00 5,1 4,7 3,7 2,1 0,7 3,0 11 6 17 9 Z 1012,3 2,8 0 3,0
20.02.2017 19:00:00 5,4 4,7 3,8 1,8 0,5 3,0 11 6 20 11 Z 1012,8 3,9 0 1,3
20.02.2017 18:00:00 6,3 3,8 3,7 1,6 0,5 3,0 13 7 28 15 ZW 1012,9 12 0 0,4
20.02.2017 17:00:00 7,3 2,1 4,2 1,1 0,4 3,0 13 7 35 19 WZW 1013,3 29 0 0,0
20.02.2017 16:00:00 7,6 1,7 4,2 0,6 0,4 3,0 19 10 45 24 WZW 1014,2 31 0 0,0
20.02.2017 15:00:00 7,9 1,1 3,9 0,1 0,4 3,0 21 11 42 23 W 1015,2 15 1 0,0
20.02.2017 14:00:00 8,1 1,3 3,7 0,0 0,4 3,1 23 12 37 20 WZW 1015,5 14 0 0,0
20.02.2017 13:00:00 7,6 1,6 2,4 0,0 0,4 3,1 16 9 27 15 ZZW 1016,6 17 0 0,0
20.02.2017 12:00:00 7,7 1,9 0,2 0,0 0,4 3,1 13 7 24 13 ZW 1017,6 25 9 0,0
20.02.2017 11:00:00 6,1 2,0 0,2 0,0 0,4 3,1 13 7 24 13 WZW 1018,7 18 0 0,0
20.02.2017 10:00:00 5,0 1,5 0,1 0,0 0,4 3,1 9 5 16 8 ZW 1019,0 19 0 0,0
20.02.2017 09:00:00 4,4 1,2 0,1 0,0 0,4 3,1 11 6 17 9 ZW 1019,6 22 0 0,0
20.02.2017 08:00:00 3,8 1,5 0,0 0,0 0,4 3,1 9 5 11 6 ZZW 1020,0 14 0 0,0
20.02.2017 07:00:00 3,4 2,1 0,0 0,0 0,4 3,1 9 5 14 7 ZW 1020,1 7 0 0,0
20.02.2017 06:00:00 3,0 2,3 0,0 0,0 0,4 3,1 9 5 16 8 ZZW 1020,1 4,7 0 0,0
20.02.2017 05:00:00 2,9 2,1 0,0 0,0 0,4 3,1 9 5 17 9 WZW 1020,6 4,5 0 0,2
20.02.2017 04:00:00 2,9 1,6 0,0 0,0 0,4 3,1 9 5 13 7 ZW 1020,4 7 0 0,0
20.02.2017 03:00:00 2,6 1,3 0,0 0,0 0,4 3,1 7 4 9 5 ZZW 1020,6 7 0 0,0
20.02.2017 02:00:00 2,9 1,4 0,0 0,0 0,4 3,1 7 4 10 5 Z 1020,7 9 0 0,0
20.02.2017 01:00:00 2,7 1,5 0,0 0,0 0,4 3,1 8 4 10 6 Z 1020,9 7 0 0,1
20.02.2017 00:00:00 2,6 1,2 0,0 0,0 0,4 3,1 6 4 14 8 ZZW 1020,9 9 0 0,0
19.02.2017 23:00:00 2,7 0,8 0,0 0,0 0,4 3,1 11 6 21 11 W 1020,9 8 0 0,0
19.02.2017 22:00:00 3,2 -0,2 0,0 0,0 0,4 3,1 12 6 20 11 W 1020,8 12 0 0,0
19.02.2017 21:00:00 3,3 -0,6 0,0 0,0 0,4 3,1 7 4 11 6 ZZW 1020,4 15 0 0,0
19.02.2017 20:00:00 3,3 -0,4 0,0 0,0 0,4 3,1 9 5 11 6 ZZW 1020,4 18 0 0,0
19.02.2017 19:00:00 3,8 -0,2 0,0 0,0 0,4 3,1 6 4 13 7 ZZW 1020,5 17 0 0,0
19.02.2017 18:00:00 4,5 -0,1 0,0 0,0 0,4 3,1 5 3 11 6 ZW 1020,4 13 0 0,0
19.02.2017 17:00:00 5,2 -0,2 0,0 0,0 0,4 3,1 8 5 21 11 ZZW 1020,2 19 0 0,0
19.02.2017 16:00:00 5,3 -0,5 0,1 0,0 0,4 3,1 16 9 29 16 ZZW 1020,7 18 0 0,0
19.02.2017 15:00:00 5,4 -0,5 0,1 0,0 0,4 3,1 14 8 27 15 ZZW 1021,0 22 0 0,0
19.02.2017 14:00:00 6,3 -0,8 0,1 0,0 0,4 3,1 14 8 26 14 ZZW 1021,2 18 45 0,0
19.02.2017 13:00:00 6,4 -0,7 0,2 0,0 0,4 3,1 15 8 26 14 WZW 1021,9 14 60 0,0
19.02.2017 12:00:00 5,7 -1,0 0,1 0,0 0,4 3,1 14 8 23 13 WZW 1023,1 21 45 0,0
19.02.2017 11:00:00 4,7 -1,0 0,0 0,0 0,4 3,1 15 8 23 12 Z 1023,6 24 50 0,0
19.02.2017 10:00:00 4,0 -0,8 0,0 0,0 0,4 3,1 13 7 22 12 Z 1024,1 16 60 0,0
19.02.2017 09:00:00 2,4 -1,6 0,0 0,0 0,4 3,1 10 5 16 9 ZZW 1024,7 20 45 0,0
19.02.2017 08:00:00 1,4 -1,4 0,0 0,0 0,4 3,1 9 5 14 7 ZZW 1025,0 18 0 0,0
19.02.2017 07:00:00 1,4 -1,1 0,0 0,0 0,4 3,1 6 3 10 6 ZZO 1024,8 23 0 0,0
19.02.2017 06:00:00 1,5 -1,0 0,0 0,0 0,4 3,1 9 5 11 6 ZZO 1025,3 23 0 0,0
19.02.2017 05:00:00 1,4 -0,8 0,0 0,0 0,4 3,1 6 3 9 5 ZZO 1025,4 20 0 0,0
19.02.2017 04:00:00 1,4 -0,7 0,0 0,0 0,4 3,1 2 1 8 4 ZW 1025,9 17 0 0,0
19.02.2017 03:00:00 1,5 -0,8 0,0 0,0 0,4 3,1 4 2 7 4 Z 1026,3 17 0 0,0
19.02.2017 02:00:00 1,3 -0,5 0,0 0,0 0,4 3,1 4 2 13 7 Z 1026,8 17 0 0,0
19.02.2017 01:00:00 1,2 0,2 0,0 0,0 0,4 3,1 9 5 11 6 ZZO 1027,0 9 0 0,0
19.02.2017 00:00:00 1,0 0,5 0,0 0,0 0,4 3,1 4 2 9 5 NNO 1027,4 6 0 0,0
18.02.2017 23:00:00 1,2 0,6 0,0 0,0 0,4 3,1 7 4 10 6 Z 1027,4 8 0 0,0
18.02.2017 22:00:00 1,6 0,5 0,0 0,0 0,4 3,1 5 3 8 4 ZZW 1027,5 9 0 0,0
18.02.2017 21:00:00 1,7 0,7 0,0 0,0 0,4 3,1 6 3 8 5 ZZW 1027,6 10 0 0,0
18.02.2017 20:00:00 1,7 0,7 0,0 0,0 0,4 3,1 6 3 9 5 ZW 1027,5 11 0 0,0
18.02.2017 19:00:00 1,9 0,4 0,0 0,0 0,4 3,2 4 2 12 7 W 1027,5 15 0 0,0
18.02.2017 18:00:00 2,0 0,5 0,0 0,0 0,4 3,2 7 4 22 12 WNW 1027,4 15 0 0,0
18.02.2017 17:00:00 2,1 0,7 0,0 0,0 0,4 3,2 12 7 18 10 NW 1026,9 13 0 0,0
18.02.2017 16:00:00 2,5 0,7 0,0 0,0 0,4 3,2 13 7 24 13 NW 1026,6 14 0 0,0
18.02.2017 15:00:00 2,6 0,8 0,0 0,0 0,4 3,2 13 7 19 11 WNW 1026,7 15 0 0,0
18.02.2017 14:00:00 2,4 1,0 0,0 0,0 0,4 3,2 16 9 26 14 NW 1026,8 13 0 0,0
18.02.2017 13:00:00 2,5 1,0 0,0 0,0 0,4 3,2 14 8 24 13 NW 1026,8 16 0 0,0
18.02.2017 12:00:00 2,6 1,2 0,0 0,0 0,4 3,2 15 8 27 15 NW 1027,0 15 0 0,0
18.02.2017 11:00:00 2,9 1,8 0,0 0,0 0,4 3,2 12 6 18 10 WNW 1026,6 11 0 0,0
18.02.2017 10:00:00 2,6 1,6 0,0 0,0 0,4 3,2 12 7 20 11 NW 1026,7 15 0 0,0
18.02.2017 09:00:00 2,1 1,8 0,0 0,0 0,4 3,2 8 4 16 9 NW 1026,1 8 0 0,1

tt = temperatuur
td = dauwpunt
tt 5cm = temperatuur 5cm
tt -5cm = temperatuur -5cm
tt -20cm = temperatuur -20cm
tt -100cm = temperatuur -100cm
ff = windsnelheid
fx = windstoten
dd = windrichting
ppp = luchtdruk
vv = zicht
sd = Zonneschijnduur
rr = neerslag

Weerstations in de omgeving